GFSNGP_prec_cthk_000.txt.gz
RH
27 29 28 27 27 29 31 35 42 39 43 50 53 56 59 62 66 71 75 74 71 67 64 61 55 49 40 38 38 36 32 28 25 18 19 24 34 40 48 57 59 72 81 74
28 33 34 28 28 29 29 30 34 43 50 51 55 60 66 70 72 73 72 71 68 66 61 55 47 41 41 40 37 33 29 29 25 20 20 22 27 36 49 52 64 80 87 73
38 42 37 36 30 29 31 35 35 42 48 54 59 63 66 69 71 72 74 72 70 65 56 49 44 44 43 38 34 32 33 28 23 20 21 26 33 45 56 63 76 88 75 63
40 39 37 34 29 30 39 40 41 46 51 56 61 64 70 73 74 74 72 69 64 57 51 46 46 45 42 36 35 32 29 26 24 23 25 30 43 55 79 84 86 75 69 57
42 47 31 30 33 34 34 46 46 51 56 57 59 63 69 72 70 69 67 64 60 51 48 48 47 45 39 37 33 34 29 28 26 28 30 38 52 59 65 70 73 77 64 54
51 38 35 32 34 34 34 42 47 47 51 54 58 69 70 69 70 70 67 64 54 50 48 48 46 42 39 38 39 35 31 27 29 32 40 47 58 65 70 73 81 74 60 48
53 49 40 32 37 39 48 39 44 46 50 54 59 63 64 67 70 70 68 60 50 49 51 51 46 41 41 40 37 32 27 32 36 38 46 55 62 68 74 84 88 71 53 48
55 55 49 32 38 42 37 40 46 52 55 59 64 65 67 72 72 69 62 51 51 53 52 46 42 39 34 31 29 28 32 37 38 44 52 60 67 77 81 82 68 56 54 48
43 41 34 36 38 41 44 46 52 57 61 66 66 72 74 73 70 66 53 55 57 53 42 37 33 29 28 28 29 31 34 42 47 50 55 61 69 71 60 57 57 56 51 44
45 39 42 45 47 53 53 56 62 64 63 68 73 76 74 72 70 59 57 55 46 38 32 30 27 26 28 28 30 32 40 53 57 55 54 56 58 55 50 57 58 54 48 45
47 48 52 52 52 53 58 63 66 67 76 75 75 75 74 71 65 56 53 43 36 33 31 29 26 23 24 26 31 36 51 63 65 61 58 55 56 57 55 55 56 53 47 52
50 49 49 47 52 59 62 63 67 73 74 78 79 77 74 66 56 52 42 36 35 34 31 27 23 22 25 30 36 44 54 66 72 71 68 59 55 55 54 54 53 50 53 57
52 53 56 57 56 59 62 66 69 82 82 82 80 78 67 56 52 42 38 38 36 32 28 25 24 25 30 34 42 52 60 68 75 77 74 66 60 52 48 49 52 54 56 60
53 53 56 56 59 64 69 72 80 86 82 82 79 68 57 51 43 41 41 38 35 29 25 25 25 29 34 40 50 56 61 69 76 79 75 65 61 52 49 51 52 55 59 64
57 58 61 68 72 79 82 85 87 86 85 81 70 59 50 44 43 42 40 38 31 27 26 25 27 33 40 48 56 57 62 69 77 77 68 63 60 54 53 58 60 60 63 66
68 73 76 79 85 89 92 91 89 87 82 73 58 51 47 45 43 42 40 34 29 26 26 28 31 38 45 54 62 62 66 74 74 65 66 67 65 61 59 61 60 62 67 63
81 83 82 88 95 95 90 86 88 84 69 58 53 49 46 44 41 38 33 30 30 30 32 34 39 44 51 60 69 70 71 75 67 64 67 68 67 62 60 60 57 66 66 61
85 88 94 96 92 87 91 91 76 63 59 54 49 47 44 41 36 30 30 32 34 37 42 45 49 52 59 66 76 81 77 76 69 66 67 64 61 61 62 58 60 66 62 60
90 95 94 89 94 89 78 64 63 61 53 51 45 42 39 33 30 32 35 38 40 38 42 49 56 61 65 72 78 88 87 80 70 68 73 67 60 59 60 60 63 64 62 60
90 92 96 86 78 70 69 65 59 53 45 41 39 34 30 31 34 38 41 44 50 49 50 53 59 65 68 72 80 87 92 86 78 76 76 72 64 61 62 61 63 62 62 61
94 86 82 76 72 66 61 55 46 41 39 35 32 29 29 35 40 46 48 48 54 55 57 59 66 70 71 73 79 87 91 87 84 84 86 85 77 66 65 64 63 63 63 61
84 82 77 70 63 57 49 44 39 36 34 30 30 34 36 40 46 49 60 64 58 59 62 65 70 71 71 73 80 85 90 89 89 91 94 94 88 79 67 64 64 64 64 65
82 75 68 59 51 45 41 38 36 32 31 36 39 43 47 48 55 59 53 61 64 63 65 68 70 71 71 73 77 83 87 91 93 94 96 96 95 94 81 70 67 64 66 67
67 59 51 47 44 40 36 34 35 38 40 42 47 51 52 57 61 71 69 66 68 71 71 71 72 73 73 75 79 83 87 90 92 95 97 98 98 98 98 91 75 71 71 72
50 48 46 43 42 41 38 37 41 43 44 47 52 59 65 67 66 65 70 72 74 79 80 77 76 75 76 77 80 83 86 89 91 93 96 98 98 99 99 98 94 80 75 74
45 46 45 45 44 44 46 47 46 48 50 53 57 64 64 67 70 72 74 78 81 82 82 81 78 75 76 76 76 74 73 75 81 86 91 94 97 98 99 99 98 91 82 79
45 47 49 50 55 55 54 54 54 56 62 63 59 67 68 67 67 71 76 82 85 87 86 85 83 78 74 67 64 62 61 60 63 69 76 85 93 96 98 99 99 97 89 85

GFSNGP_prec_cthk_006.txt.gz
RH
35 33 28 24 23 29 29 29 33 28 29 27 33 37 42 47 51 56 61 62 64 65 66 74 76 67 61 60 60 54 49 44 41 37 32 26 25 26 25 28 30 42 41 42
36 36 34 27 25 26 27 27 31 31 30 30 33 37 42 46 50 56 61 63 64 68 75 70 61 59 60 59 54 52 48 43 41 35 30 26 27 27 30 35 42 47 47 50
31 38 33 28 23 25 25 25 27 32 26 32 34 36 40 45 48 55 61 63 64 64 63 61 60 61 58 54 54 51 46 42 37 34 29 28 29 32 34 40 48 54 59 67
42 37 33 21 24 26 26 27 28 29 30 33 34 38 42 45 49 55 60 63 62 63 66 65 59 56 56 55 54 50 42 39 36 32 31 30 31 34 39 45 52 59 65 69
41 43 30 23 29 31 32 28 30 32 35 36 38 42 40 43 49 57 62 62 64 68 66 59 56 57 57 56 51 41 38 34 33 33 33 32 32 38 43 50 59 63 69 75
47 37 34 26 27 29 29 36 29 32 37 38 40 47 39 46 52 61 64 64 68 68 64 62 59 58 56 50 41 37 35 35 33 34 36 35 38 45 50 55 62 66 66 59
53 44 35 25 29 31 40 32 30 32 34 39 43 42 46 51 58 65 68 71 70 70 69 65 61 56 51 41 39 38 34 30 31 36 36 41 44 50 54 57 59 58 58 55
52 52 37 27 33 37 33 31 33 36 41 44 47 53 53 59 64 69 74 72 75 79 74 63 56 51 43 41 39 35 30 29 29 31 37 46 50 54 51 54 54 54 54 55
45 43 36 36 38 38 39 41 41 43 47 54 58 60 64 65 65 75 73 77 85 80 66 59 54 46 43 42 38 31 29 26 27 32 41 50 53 56 59 61 61 61 58 54
42 37 40 40 40 41 44 46 49 55 60 61 64 69 72 74 72 78 82 92 81 67 63 57 49 46 43 39 32 29 25 26 31 37 46 55 58 63 67 69 67 61 55 54
46 41 41 42 43 46 49 53 57 58 61 64 68 73 78 81 85 89 95 80 69 67 61 52 48 44 40 33 28 24 26 31 37 44 50 58 63 68 74 77 65 55 52 54
50 43 45 45 49 51 53 55 57 60 64 69 73 77 87 92 92 94 79 72 70 63 53 49 44 40 33 28 25 27 28 35 44 49 56 61 68 76 81 67 58 57 56 59
53 56 60 64 64 64 63 63 65 68 71 77 81 87 94 94 93 81 78 72 63 55 51 45 40 33 30 27 29 32 35 40 49 56 63 70 77 80 72 67 65 61 60 59
70 71 70 72 70 69 68 70 71 77 82 86 88 93 98 92 82 79 73 62 56 51 46 40 34 31 27 29 32 36 41 48 56 64 71 76 80 75 74 71 69 66 61 60
73 74 72 72 72 73 74 78 84 85 89 97 98 98 93 80 76 72 62 58 52 46 40 35 31 29 30 32 35 39 48 55 61 68 76 80 76 74 77 77 74 67 64 61
71 74 76 78 81 82 84 86 90 95 98 98 96 84 80 78 70 63 59 51 45 39 36 33 30 32 35 36 40 44 52 60 64 71 77 84 77 72 78 76 69 68 66 61
80 84 84 84 86 86 89 88 95 97 94 88 83 82 73 65 62 58 51 45 39 37 36 33 33 38 42 44 45 47 52 61 66 73 81 85 81 76 81 75 67 67 66 63
86 87 89 90 91 92 96 96 91 89 86 84 77 69 64 60 56 50 45 39 36 36 37 37 39 44 48 51 52 53 56 61 66 72 81 88 88 81 84 83 73 65 65 65
91 93 93 93 93 93 93 90 86 84 78 73 68 64 60 57 50 45 38 35 35 36 40 43 47 50 53 56 59 59 61 63 65 71 79 88 91 80 82 90 85 73 68 69
92 87 88 85 83 87 88 88 81 76 72 69 65 60 56 51 44 37 35 35 40 43 45 50 54 57 59 59 64 67 71 69 70 70 78 85 90 89 86 90 94 91 80 74
89 86 85 83 82 82 80 76 73 71 66 59 55 52 48 42 39 37 38 38 42 51 54 58 61 59 59 61 64 69 75 76 76 76 78 87 92 94 92 94 98 98 97 90
88 89 87 84 76 74 72 68 62 56 53 51 48 43 39 37 39 41 42 45 48 55 59 61 65 64 62 62 67 69 73 78 80 83 86 90 93 94 97 98 98 98 98 98
85 80 75 70 65 60 56 54 51 48 45 43 41 41 42 43 45 48 45 49 51 56 61 62 64 64 67 62 69 73 74 78 84 86 86 87 85 87 87 91 92 96 98 98
73 67 63 57 52 48 44 41 39 40 41 42 44 46 48 48 44 53 55 54 56 57 58 59 59 59 61 65 74 77 79 82 81 81 79 76 74 72 72 75 79 85 89 94
59 53 49 45 43 43 43 42 43 44 42 41 42 43 48 53 54 47 50 50 50 51 55 57 60 65 69 76 82 83 85 84 82 80 74 68 63 59 58 61 64 68 71 77
53 49 49 49 48 47 46 44 40 36 34 34 38 42 41 44 48 50 50 50 53 52 56 62 66 71 75 80 82 86 86 84 83 80 74 66 62 57 55 55 55 57 59 66
53 52 52 52 51 46 41 37 37 39 43 45 45 45 44 43 46 50 53 57 58 60 68 70 73 74 77 81 84 87 88 88 86 82 77 71 66 61 59 57 57 57 56 58

GFSNGP_prec_cthk_009.txt.gz
RH
39 36 31 26 29 28 24 24 28 23 24 22 23 26 31 35 39 43 47 51 56 61 66 62 75 71 56 59 57 53 52 52 49 48 45 39 32 28 28 29 33 34 41 46
41 37 34 29 26 26 28 27 26 26 24 22 26 28 32 35 38 42 47 51 56 60 62 75 57 56 61 60 55 53 55 53 51 46 42 36 31 29 29 32 35 39 45 51
33 36 33 31 25 24 25 24 25 29 21 25 27 29 31 35 39 44 47 52 57 59 61 58 59 62 64 59 54 58 59 53 47 44 38 33 31 31 30 32 38 44 50 57
38 36 34 21 23 24 25 25 25 26 25 27 30 32 32 36 39 41 46 52 55 58 61 63 65 67 62 56 60 61 55 45 43 38 35 32 32 31 31 34 39 48 53 60
39 34 27 21 24 29 30 26 27 27 29 33 35 37 36 35 38 43 51 57 62 63 65 67 70 65 60 63 62 56 44 42 38 35 32 32 32 33 33 38 46 49 53 57
43 36 35 24 23 29 29 32 26 28 32 37 40 42 35 37 43 50 58 64 67 69 69 73 69 66 66 63 58 46 45 40 35 30 28 30 31 35 38 44 49 50 53 53
47 43 34 27 30 32 35 30 29 30 34 40 42 41 42 45 50 59 66 69 69 76 77 77 76 71 65 60 50 47 43 35 29 27 27 27 30 39 43 48 47 51 55 56
48 47 41 31 36 40 37 37 36 38 40 43 44 47 53 58 63 67 69 72 78 77 78 80 71 69 63 54 48 44 35 29 26 26 25 28 34 43 47 50 54 60 64 63
41 39 33 35 37 38 39 40 41 44 46 49 55 61 65 66 67 70 75 79 82 83 83 74 72 66 57 49 45 37 30 27 26 26 26 32 40 48 51 56 61 69 69 60
40 36 39 38 38 38 41 44 48 50 53 58 62 66 69 70 73 77 80 80 88 83 78 76 68 58 51 46 38 31 29 27 27 25 29 38 45 52 57 61 69 72 60 54
43 39 39 39 41 44 47 48 51 56 59 62 66 68 72 73 75 80 84 95 88 82 76 68 61 55 48 39 32 30 29 29 27 30 34 42 49 57 64 70 74 68 60 56
46 40 45 46 50 56 61 65 67 66 67 68 70 72 76 83 87 93 94 88 82 78 69 62 56 50 42 35 32 31 32 31 32 35 41 47 53 61 69 73 73 65 64 62
49 55 61 66 71 71 72 72 71 72 73 74 77 84 86 92 98 97 87 81 79 67 64 58 51 46 39 35 34 35 32 32 34 39 46 52 58 68 73 74 72 72 71 65
62 65 68 72 75 76 76 75 76 78 81 84 84 88 96 97 95 87 86 77 70 65 60 53 50 43 38 35 37 36 33 35 37 42 49 56 63 73 80 76 74 77 72 66
64 67 70 74 77 78 81 84 87 86 87 90 95 95 96 95 90 83 75 69 65 60 54 48 44 39 39 41 39 37 38 39 42 47 52 58 66 74 81 77 77 79 71 65
67 72 78 83 85 86 90 91 92 94 93 94 95 95 91 85 79 74 70 66 61 54 48 45 40 42 43 41 39 41 43 47 50 53 54 60 67 77 80 75 76 76 67 63
80 85 89 90 92 92 95 96 96 94 95 92 89 88 82 76 72 69 68 63 55 50 48 46 45 47 44 42 44 46 47 51 56 59 60 63 67 77 84 79 76 81 73 67
90 92 93 94 94 95 96 95 92 90 88 86 81 78 74 72 70 66 61 56 51 48 48 49 49 45 44 49 50 51 50 54 59 62 63 67 68 75 84 86 79 86 88 75
92 92 92 92 90 89 88 88 87 84 81 79 75 71 66 61 58 54 51 48 46 44 46 48 46 47 52 57 58 58 57 58 59 62 67 72 75 77 84 89 83 83 91 92
82 80 81 83 83 83 83 82 78 74 71 64 58 54 51 51 49 46 45 45 44 45 46 48 50 54 60 62 62 63 62 66 64 64 67 74 80 84 87 91 94 93 92 96
85 85 85 83 77 76 75 72 65 58 52 52 51 49 47 45 44 42 39 38 41 46 47 50 54 58 60 65 64 64 64 66 64 68 71 75 82 88 92 93 94 94 94 96
78 77 75 78 75 70 62 57 56 56 53 50 48 44 39 38 39 39 42 43 42 47 49 52 58 60 59 58 58 58 61 64 67 73 77 79 85 88 91 90 87 86 87 89
72 73 79 74 67 62 58 53 50 48 46 45 44 42 41 39 41 41 37 42 47 49 53 55 57 57 58 56 55 60 64 71 77 83 82 80 85 87 85 82 78 75 73 75
76 75 68 62 53 48 49 48 47 48 44 39 34 32 31 30 29 37 40 42 44 48 49 51 52 56 59 58 60 64 71 77 81 87 88 86 86 84 80 75 68 63 60 60
62 59 56 52 52 53 55 51 47 40 34 32 33 35 39 42 42 34 37 39 41 46 49 54 56 59 63 67 67 71 74 78 84 86 90 87 86 84 79 73 68 61 58 61
64 59 60 62 61 60 54 50 47 42 39 38 37 35 34 34 35 39 40 42 45 51 58 62 64 67 74 76 74 76 77 82 85 87 91 89 88 86 79 75 71 65 61 62
66 68 69 67 65 63 60 55 49 44 41 36 31 31 31 32 33 35 36 38 45 50 57 63 67 73 77 79 79 80 81 85 87 89 92 91 90 87 83 79 74 70 66 65

GFSNGP_prec_cthk_015.txt.gz
RH
35 41 41 34 32 29 25 22 26 21 20 18 20 20 21 24 24 27 33 35 39 43 47 51 53 56 60 61 66 68 65 61 58 57 58 63 65 63 56 50 44 45 49 47
35 33 35 34 29 24 24 22 23 21 21 20 22 23 22 25 26 28 33 37 41 43 47 50 52 55 60 66 68 71 63 61 62 63 67 67 61 57 52 47 48 50 49 50
36 36 35 39 29 25 24 24 23 24 23 28 29 26 25 28 30 31 33 36 38 42 48 52 54 56 64 69 72 68 68 68 68 72 70 62 57 51 48 50 54 51 49 46
38 40 52 22 23 22 24 23 25 26 25 27 28 29 30 29 31 32 34 38 42 47 50 55 58 61 69 72 71 76 69 75 80 75 62 57 52 45 49 52 50 49 49 46
52 34 27 23 20 21 23 21 23 26 25 27 30 28 29 36 37 38 41 41 45 50 56 63 64 68 71 73 76 72 84 79 77 65 60 54 48 46 49 46 48 50 53 49
40 54 57 31 27 25 26 26 28 26 28 29 30 37 38 43 42 40 42 47 52 58 64 68 70 72 73 76 83 83 80 83 72 63 54 51 55 52 49 50 49 51 50 44
46 51 36 27 25 25 29 35 32 29 32 33 35 38 42 41 41 46 52 58 62 69 75 76 74 76 83 84 87 85 85 73 67 58 55 59 49 47 50 48 50 53 46 46
46 55 48 26 28 31 38 32 34 33 36 39 40 41 45 46 47 54 62 69 72 75 74 74 80 88 90 90 86 87 77 66 62 62 60 55 52 48 54 50 53 53 48 54
34 39 36 29 30 34 32 32 34 37 38 42 44 46 51 59 62 66 70 70 69 70 77 83 88 92 91 93 87 75 71 66 66 61 58 57 52 48 47 52 53 50 54 60
33 32 34 35 33 33 35 37 38 40 45 50 57 66 69 70 67 67 64 63 73 79 86 92 94 95 87 82 81 73 67 63 58 62 61 49 47 41 48 51 47 50 59 65
37 32 35 36 41 39 40 45 50 58 63 65 68 69 73 73 67 69 71 78 84 90 95 95 94 87 85 82 75 69 64 61 64 58 54 51 45 42 43 43 48 54 62 68
41 41 37 40 44 45 51 58 62 64 67 65 68 70 71 72 76 82 86 88 92 92 93 92 91 87 81 75 69 65 62 59 58 55 51 48 43 39 39 42 47 53 62 69
37 40 42 46 54 56 57 58 59 61 65 68 70 76 83 85 89 91 92 92 95 93 90 89 85 79 72 66 62 59 56 50 49 49 49 48 45 46 42 46 51 57 62 69
49 52 58 57 60 58 60 63 68 73 76 79 81 85 86 89 90 90 91 91 90 88 85 79 72 66 60 57 54 49 46 44 45 42 43 44 51 52 53 54 56 61 66 70
56 57 59 61 63 67 73 79 83 87 87 87 87 85 84 84 84 84 84 82 78 73 67 61 58 54 52 48 45 42 42 41 43 45 47 49 51 53 56 59 60 64 71 71
62 63 65 69 75 80 85 89 89 88 86 83 81 81 79 77 73 69 67 65 63 57 54 50 47 43 39 36 37 40 43 44 46 49 52 55 56 59 60 64 64 64 72 77
72 76 81 85 89 89 88 87 84 83 80 79 77 67 56 53 52 53 51 51 49 46 44 42 38 36 35 35 41 45 50 57 56 57 60 62 62 66 66 68 67 66 68 81
83 88 91 89 86 83 81 81 76 71 65 56 49 46 46 45 42 42 42 40 40 39 36 36 36 37 40 41 46 51 55 58 60 62 63 64 64 64 64 67 70 68 69 80
85 84 85 84 82 79 73 66 58 50 47 45 41 39 39 42 44 40 38 37 36 36 44 43 41 39 40 42 46 50 55 57 60 63 65 65 63 61 61 61 63 69 76 83
85 84 80 75 68 58 51 47 46 44 41 39 40 45 43 40 36 36 36 36 39 43 43 43 44 45 45 45 47 49 51 51 57 63 63 65 63 60 64 68 73 76 81 88
80 71 63 56 52 50 48 46 44 44 43 41 38 37 37 33 31 34 38 42 45 47 45 41 35 34 35 38 43 49 60 66 66 71 71 68 68 63 70 77 80 85 87 92
71 61 57 56 53 50 47 43 40 39 40 40 39 39 39 42 42 47 50 52 51 44 37 34 34 35 36 36 39 43 49 57 62 72 71 75 71 67 75 80 85 88 91 93
66 60 60 58 51 46 44 43 44 48 49 47 46 46 47 53 53 52 50 51 41 35 31 30 29 26 27 34 39 47 53 58 66 74 75 78 75 74 76 82 86 89 93 94
62 58 57 56 53 50 50 53 55 55 54 55 57 54 54 54 52 50 45 38 33 28 30 30 27 29 32 36 41 49 58 64 66 72 77 80 80 80 81 81 87 90 93 94
62 62 62 62 58 59 61 64 66 66 65 65 65 61 57 53 48 41 36 34 33 31 31 31 32 34 38 43 47 53 59 63 70 74 78 81 84 85 82 82 87 90 93 95
69 69 68 63 65 69 72 70 69 72 69 69 65 60 53 46 40 36 34 32 31 32 33 34 35 37 42 47 53 58 62 69 72 79 80 82 85 85 84 83 85 90 93 94
73 73 75 79 81 80 77 74 74 73 71 68 61 55 46 39 35 33 32 31 32 33 34 35 38 41 45 49 55 60 66 70 74 81 81 83 84 83 80 79 80 84 87 89

GFSNGP_prec_cthk_021.txt.gz
RH
27 29 38 44 46 57 44 37 43 36 34 25 33 33 32 31 31 31 33 40 44 45 53 58 58 63 65 64 63 59 57 61 66 67 72 74 76 79 80 78 71 69 65 67
29 29 36 40 46 46 46 38 36 34 34 30 33 31 30 31 32 34 35 35 33 44 48 49 59 60 65 61 60 60 64 71 73 70 69 79 83 85 83 77 76 66 83 77
45 41 35 35 25 30 30 37 36 33 31 31 34 31 30 30 31 32 32 30 32 36 43 47 48 49 50 55 61 67 73 76 75 75 79 85 90 91 86 76 79 82 76 74
60 49 42 27 25 27 28 30 30 31 32 31 32 33 33 33 33 33 32 34 37 38 41 42 44 49 59 66 72 74 76 75 78 81 85 90 95 88 75 81 78 75 76 74
57 54 38 28 29 28 27 30 28 28 29 30 32 33 35 35 33 34 36 36 37 36 36 45 55 66 71 74 74 74 75 78 83 87 91 95 89 82 87 78 78 74 71 67
55 55 48 38 32 29 28 37 31 30 31 31 29 36 38 37 37 36 36 37 39 41 49 59 64 67 68 69 73 78 82 84 89 92 95 90 86 88 79 76 70 65 56 50
60 58 49 37 32 29 34 36 33 31 32 31 33 35 36 37 37 36 35 43 53 58 62 64 65 69 78 82 82 85 89 90 96 96 93 91 86 80 74 68 54 49 49 46
56 60 54 30 28 29 35 32 32 32 31 32 32 34 35 38 39 44 52 58 60 61 65 70 77 82 86 86 92 92 95 95 96 95 91 84 77 69 61 51 46 41 41 41
40 42 32 28 29 32 32 31 32 33 35 35 35 40 45 48 53 56 57 60 63 66 69 76 84 86 88 92 94 95 92 88 82 76 73 69 63 58 47 43 40 38 37 40
38 35 34 31 33 33 33 34 35 36 35 37 42 47 54 58 58 59 59 63 65 71 77 78 80 83 81 81 77 72 71 67 64 58 57 58 51 44 40 38 39 40 39 44
36 32 37 39 41 41 41 41 40 41 41 45 49 54 57 60 60 60 64 69 74 77 78 76 75 73 68 63 57 54 51 48 47 45 36 33 32 31 35 40 43 44 45 46
43 38 38 42 42 43 43 44 45 48 49 53 55 59 61 62 66 73 77 80 78 74 72 68 63 57 50 45 42 40 38 34 31 29 27 30 33 36 42 47 49 47 49 52
41 39 40 43 44 43 46 50 51 52 56 60 65 67 71 78 82 82 78 76 71 65 60 55 48 42 36 35 30 27 25 26 26 27 31 34 38 44 47 49 49 51 52 53
46 44 44 44 50 53 56 60 60 62 67 70 73 76 79 81 76 73 70 66 59 52 46 39 36 34 34 31 28 29 30 31 33 35 38 41 48 54 54 53 50 46 53 57
46 46 49 56 63 67 68 67 69 74 76 79 84 84 79 74 72 69 61 51 46 38 31 31 31 31 29 28 29 32 36 38 43 48 52 57 59 58 62 62 59 55 53 52
55 56 62 67 72 71 71 73 77 79 85 85 80 79 77 74 65 53 46 37 30 28 30 31 31 33 35 37 39 40 40 44 51 55 57 61 65 67 70 72 67 60 63 55
62 68 72 75 74 73 74 77 82 84 82 79 74 70 64 54 45 40 34 31 31 31 33 34 35 35 36 41 41 39 40 44 47 46 49 51 53 55 55 58 63 66 65 62
69 74 77 77 78 80 86 88 85 83 79 74 67 60 49 44 38 32 28 26 26 32 37 37 38 37 39 38 39 42 42 39 35 34 33 32 36 44 52 54 62 71 84 76
77 80 82 83 84 86 85 85 81 76 71 66 55 48 43 35 29 28 30 30 33 36 38 41 43 42 37 38 40 37 33 30 28 27 30 32 30 29 36 46 66 92 93 80
84 84 85 87 90 90 84 79 74 70 60 52 49 42 34 32 34 35 38 39 42 46 47 42 38 37 40 39 34 29 29 31 31 33 34 37 39 44 41 43 79 93 90 82
88 91 95 91 84 80 78 76 69 59 54 48 41 37 37 40 41 41 41 46 48 49 44 40 39 36 31 29 27 27 28 29 30 33 37 39 40 52 56 56 60 70 81 83
94 90 85 81 79 75 73 67 59 52 44 40 42 45 47 47 47 49 51 53 51 46 42 38 32 27 27 27 25 25 27 29 31 35 39 44 47 49 57 65 68 75 81 89
89 85 80 78 77 72 67 57 48 45 45 47 52 54 53 55 56 56 55 54 52 45 37 34 31 28 26 25 25 26 28 31 33 37 42 46 51 56 58 62 70 74 80 85
85 80 76 74 72 63 58 55 54 55 57 59 59 58 57 59 58 55 51 46 40 36 33 31 31 30 28 27 28 29 32 36 38 41 43 47 50 57 61 69 71 74 81 82
79 75 74 69 65 64 64 61 61 65 66 66 66 64 62 60 57 50 41 36 35 34 32 32 32 30 30 31 32 35 38 41 44 45 49 52 56 59 61 68 74 81 83 85
75 71 72 70 69 73 72 72 70 69 69 70 70 65 59 55 44 39 40 37 33 33 34 33 33 33 33 35 38 40 43 45 48 52 56 60 65 70 72 74 74 77 83 87
73 75 76 79 80 80 76 77 76 73 72 75 72 63 52 44 41 37 36 36 34 35 36 35 35 35 37 40 42 45 48 51 55 60 65 69 74 79 82 85 86 86 85 85

GFSNGP_prec_cthk_024.txt.gz
RH
36 29 28 30 34 36 46 52 50 35 39 35 27 28 28 29 28 28 32 37 41 42 44 43 49 51 57 70 76 74 63 59 63 68 69 68 69 70 74 76 79 77 79 75
39 35 29 28 35 32 42 53 52 44 39 36 35 30 28 29 33 34 36 37 39 42 42 43 47 53 64 63 61 59 59 65 71 72 69 69 73 75 77 79 85 88 81 80
39 34 31 39 25 30 33 49 45 46 42 40 38 36 35 36 39 40 40 38 36 34 32 35 41 47 48 50 57 62 68 71 71 69 72 75 75 76 79 85 89 88 83 80
52 43 51 34 26 24 27 29 32 33 35 34 37 38 38 38 38 38 38 38 37 35 35 34 36 42 49 56 64 70 72 68 71 75 74 72 74 78 83 87 92 83 79 75
62 62 49 34 30 27 30 37 34 33 34 35 37 36 38 38 38 38 38 37 36 34 33 35 40 50 59 65 69 71 75 79 76 75 78 78 93 97 93 92 82 80 71 64
76 63 54 36 32 31 32 43 36 34 34 33 32 40 40 38 38 38 37 35 35 35 40 48 54 57 60 66 75 79 81 79 80 91 97 91 91 96 90 75 69 64 63 52
64 57 45 34 36 32 35 35 36 34 34 32 32 33 33 34 34 33 32 34 41 50 56 58 58 60 65 73 79 82 84 90 92 93 91 86 85 81 75 63 57 53 45 34
61 63 48 34 33 33 32 33 31 31 31 32 31 32 32 33 34 38 42 49 54 56 55 55 59 64 74 85 90 90 91 91 89 86 83 80 71 63 53 47 45 33 29 28
40 39 31 28 28 27 28 29 30 32 33 33 31 32 34 38 42 47 51 54 56 55 56 63 71 77 82 85 87 85 81 75 70 62 55 51 44 43 43 33 25 29 33 35
36 32 33 31 30 29 28 30 33 34 34 34 34 37 41 46 50 53 55 57 58 61 69 75 78 80 79 77 71 66 59 51 46 42 40 39 36 29 26 26 30 33 36 43
39 39 37 36 34 34 35 36 37 39 40 43 46 48 51 52 54 57 60 62 69 76 79 77 75 71 64 56 51 49 43 37 33 31 28 24 24 25 26 31 36 39 44 52
39 34 36 39 40 41 41 43 44 45 48 53 55 56 58 60 62 67 74 80 82 79 75 70 64 56 52 49 41 31 28 26 24 24 24 25 27 28 34 40 47 54 57 59
36 37 37 40 43 44 44 46 48 53 55 58 62 64 67 71 76 80 82 79 74 71 68 62 53 47 40 32 27 25 25 25 26 29 32 35 38 41 44 49 58 58 62 65
41 40 45 44 46 47 48 53 59 62 66 68 69 70 73 76 80 79 74 72 70 65 54 46 41 36 30 27 26 27 29 31 33 35 39 42 47 52 58 59 56 53 62 76
50 51 50 54 54 53 57 64 68 72 71 72 70 71 78 78 74 73 72 68 62 49 41 38 34 30 28 29 30 33 34 36 37 38 41 46 50 52 54 53 59 58 60 63
57 59 60 58 57 63 71 75 77 77 74 73 78 82 81 78 75 70 64 54 45 42 39 34 30 29 31 32 31 31 32 34 35 36 37 39 37 37 41 39 42 49 51 47
68 67 67 69 72 77 81 82 80 77 80 82 81 77 75 69 63 58 51 47 41 35 36 33 33 35 34 33 31 29 29 29 29 29 30 32 32 31 32 32 29 26 35 51
74 73 75 78 81 83 83 81 82 85 83 80 78 73 67 61 57 52 45 40 38 37 36 36 36 36 32 31 31 30 29 28 29 28 30 30 31 33 33 32 37 38 32 28
80 79 81 86 87 86 86 87 86 85 81 76 71 66 63 60 54 45 42 39 36 36 38 40 39 36 35 33 30 30 29 28 27 26 27 27 29 33 35 36 44 47 49 46
87 87 90 91 88 89 89 90 83 78 75 70 67 66 61 51 49 43 39 39 42 44 44 40 37 35 31 29 28 28 27 25 25 26 26 27 30 32 37 42 46 52 55 63
94 94 92 90 95 95 85 79 77 75 71 70 67 60 54 51 45 43 44 46 46 44 41 38 33 28 26 26 26 26 25 25 25 26 28 29 31 34 37 41 46 50 56 58
93 95 98 95 85 81 82 80 77 76 72 63 58 55 51 49 49 50 51 49 47 45 41 32 28 27 28 28 26 25 25 25 27 29 30 32 35 37 39 41 45 51 57 64
98 92 86 84 83 81 79 77 72 66 63 61 57 54 55 57 57 56 53 51 50 43 33 31 31 30 29 27 26 26 27 29 30 31 35 37 39 42 45 49 51 53 56 64
91 87 85 83 83 85 79 74 72 70 65 60 58 61 62 61 61 59 59 54 42 35 33 32 30 30 30 29 29 30 31 32 34 38 40 42 45 49 53 56 60 64 66 66
88 87 88 86 83 80 78 78 75 69 67 66 65 64 65 65 68 66 57 43 37 36 34 32 32 33 33 33 34 34 35 36 40 42 44 48 53 56 61 65 69 72 75 78
89 86 83 84 85 83 80 78 76 73 69 71 74 73 73 74 71 56 44 40 39 37 35 34 34 35 36 37 36 38 39 42 44 45 49 54 57 62 66 71 74 78 83 86
85 86 85 83 81 82 83 83 84 82 80 78 81 81 78 69 52 47 44 41 39 37 36 36 36 37 37 36 38 42 44 45 46 48 51 53 58 62 65 67 70 71 74 81

GFSNGP_prec_cthk_030.txt.gz
RH
43 43 47 44 43 49 47 47 47 35 38 35 33 37 38 30 28 26 29 29 30 32 36 41 48 54 56 53 52 54 61 69 72 68 65 71 77 79 75 74 80 84 86 84
50 53 51 51 38 35 35 32 35 36 32 27 30 41 38 36 35 34 33 34 35 37 39 43 45 46 44 42 45 51 55 58 62 64 69 76 81 79 77 79 84 86 87 86
62 62 60 58 40 36 33 28 29 32 27 27 29 37 45 46 42 39 39 38 37 39 39 38 38 34 35 37 39 43 47 53 57 68 79 85 87 83 81 85 91 93 86 90
68 64 63 35 33 31 32 27 26 26 25 26 26 33 39 42 40 41 40 38 38 38 37 34 32 33 33 33 34 37 45 55 64 74 80 85 82 83 88 92 95 94 96 91
65 62 47 38 31 33 44 35 30 27 28 28 30 32 37 39 39 40 39 38 36 34 33 34 33 31 32 37 43 50 56 61 66 74 76 81 84 91 94 95 97 97 90 91
67 65 56 39 35 48 49 45 36 33 34 35 36 40 41 39 38 36 35 34 34 33 33 32 34 39 42 46 49 52 55 61 68 74 81 86 91 89 89 88 89 87 86 70
77 68 54 41 35 37 44 34 32 34 35 37 37 36 37 38 37 35 34 33 32 34 36 40 43 45 44 45 47 53 62 70 77 81 86 89 89 86 84 86 80 62 49 39
72 65 56 38 33 33 30 27 29 33 34 36 37 36 34 33 32 31 31 33 37 41 45 47 47 48 49 53 59 65 73 80 82 83 85 84 78 69 61 53 42 32 27 24
48 49 43 31 23 27 28 31 32 34 36 34 31 31 31 31 31 32 35 40 45 48 50 53 55 58 62 68 72 75 72 71 71 69 64 56 50 44 34 27 23 21 22 23
44 44 32 25 24 25 26 28 29 28 27 29 29 30 31 32 35 41 45 48 51 54 59 63 66 67 70 72 69 66 65 63 60 54 46 38 34 31 26 23 24 27 30 33
44 37 28 25 25 26 27 28 28 28 29 29 31 34 36 39 45 50 54 57 61 66 69 69 70 71 70 66 66 64 60 53 46 41 36 32 31 29 27 30 34 36 40 44
51 25 25 23 25 27 28 29 29 30 34 36 38 41 45 50 56 61 64 69 71 73 74 73 73 69 67 67 62 55 49 46 42 37 35 33 28 25 26 26 27 28 29 32
38 28 28 27 29 31 33 34 35 37 39 42 46 50 53 60 67 71 76 76 78 79 76 76 71 68 65 59 54 52 48 41 38 35 30 26 23 22 19 19 20 20 22 26
50 38 35 34 36 38 39 41 42 44 47 50 54 59 64 69 73 84 85 82 80 79 76 71 68 65 59 56 52 47 43 39 36 32 27 24 22 18 17 16 15 16 19 20
60 50 41 42 43 44 46 47 50 54 58 61 65 68 71 77 81 87 85 85 83 76 72 71 66 62 59 54 51 45 41 38 34 27 21 18 18 17 19 21 22 21 20 19
62 58 54 53 53 53 57 60 61 68 71 75 76 74 78 84 90 89 88 84 78 75 70 66 63 60 57 53 47 43 41 34 26 20 20 18 18 20 22 22 22 23 24 26
75 76 72 69 69 72 71 77 77 80 82 82 81 85 88 91 92 86 81 80 74 68 68 66 61 59 54 49 45 41 33 25 22 20 20 21 23 24 23 22 23 25 26 27
85 83 82 76 77 82 83 81 88 86 88 91 90 91 96 90 84 82 75 71 70 70 68 63 62 58 52 47 42 34 27 24 22 22 24 26 26 24 22 23 24 24 25 28
80 80 79 76 78 81 83 90 89 90 91 93 97 94 90 84 76 74 73 74 71 67 65 64 61 55 49 44 36 30 26 24 26 27 28 27 25 24 24 24 25 27 29 30
79 78 78 82 85 89 94 97 96 97 97 96 94 86 80 76 76 77 75 71 67 67 68 64 57 52 46 38 32 29 28 29 29 29 28 26 25 25 25 26 28 31 33 38
87 91 93 96 97 98 98 97 97 97 96 88 82 78 78 80 78 74 71 70 70 68 62 58 53 47 41 36 33 31 30 32 32 30 28 26 26 27 26 28 32 35 40 43
96 97 98 98 98 97 97 97 96 89 82 79 82 84 81 78 76 75 73 70 66 64 62 57 53 47 40 36 35 35 36 34 33 32 29 29 28 27 28 31 34 37 41 44
98 97 98 98 97 96 95 91 87 85 84 86 83 81 80 80 79 76 73 72 71 70 66 59 51 45 44 42 39 38 36 35 34 32 31 30 29 29 31 32 34 36 39 42
96 96 97 97 97 95 92 90 89 88 88 86 86 87 88 86 82 79 80 79 78 74 69 60 54 51 48 44 41 40 38 35 34 34 32 31 30 32 33 35 37 39 41 43
97 97 97 97 97 95 94 92 92 93 93 94 95 94 92 91 92 89 86 80 75 72 67 62 57 54 51 47 43 39 36 36 37 34 31 31 32 34 35 37 38 40 42 46
98 98 98 97 97 96 97 98 97 97 96 95 95 95 96 96 94 90 87 81 78 72 66 60 56 52 49 45 40 38 38 39 37 33 32 33 34 36 36 36 39 43 45 48
97 97 97 97 98 96 96 96 95 95 97 98 96 94 92 90 90 86 80 74 70 66 62 58 52 49 45 41 40 41 41 39 35 33 34 35 37 35 34 35 37 42 52 57

GFSNGP_prec_cthk_036.txt.gz
RH
35 36 37 37 38 39 40 39 47 46 43 38 37 40 36 23 21 27 31 34 33 34 39 42 42 43 45 48 54 58 61 61 59 56 55 61 66 67 66 67 71 71 75 80
37 36 40 41 35 38 38 38 39 38 40 29 27 28 27 23 20 29 34 35 40 40 44 49 51 52 53 53 55 58 55 54 51 46 47 51 50 54 60 63 68 66 79 76
43 45 46 47 38 37 36 37 39 42 37 31 32 29 25 28 30 26 39 43 45 50 51 50 49 49 46 46 45 44 43 42 40 41 40 43 48 54 57 64 67 68 78 86
49 57 64 34 37 40 42 43 44 41 30 28 31 35 28 26 30 32 31 40 46 49 50 47 45 43 42 40 38 38 37 37 38 41 47 51 55 59 62 67 72 78 83 89
65 52 38 39 37 38 45 39 39 29 30 32 44 45 38 31 31 31 33 33 35 39 42 42 41 38 35 34 33 33 34 37 41 43 47 52 57 62 67 72 77 81 83 84
63 55 53 35 36 33 35 29 36 33 25 29 38 38 36 35 34 35 36 39 41 41 40 37 35 34 31 31 33 35 38 41 46 51 55 60 62 66 67 68 71 72 72 67
62 62 43 35 37 44 50 29 42 31 22 29 33 31 35 39 40 40 41 41 41 39 35 34 32 31 33 36 39 43 47 51 54 56 57 59 62 62 61 60 57 50 42 39
62 69 56 37 39 40 40 45 32 29 21 27 30 33 37 40 41 42 43 42 38 36 33 33 35 37 40 43 48 50 53 57 57 57 56 54 53 50 46 44 41 42 40 40
53 48 42 42 37 41 46 40 34 29 21 28 31 34 37 39 40 42 41 39 37 35 36 39 42 44 47 50 54 57 57 56 51 50 50 47 45 44 47 46 45 45 43 42
65 50 51 48 44 44 44 38 35 28 21 27 31 34 36 38 39 39 37 35 36 38 41 44 48 51 52 56 58 57 54 52 50 49 48 47 46 44 45 44 42 42 40 37
65 58 55 52 52 47 43 39 35 27 23 27 32 33 34 35 36 37 37 38 40 43 46 50 54 55 56 59 60 59 56 52 51 51 48 45 44 44 43 40 35 30 29 30
58 60 61 57 55 51 44 40 28 24 24 27 31 33 35 35 37 38 41 43 47 50 52 56 58 59 60 63 62 59 55 54 51 49 47 47 46 48 42 35 31 29 28 25
56 63 63 60 55 54 45 37 31 27 27 29 32 35 37 39 42 44 47 51 54 57 59 62 63 64 67 66 63 59 57 53 51 49 49 48 47 43 42 40 34 29 26 25
58 63 63 65 66 63 53 43 36 36 35 34 37 40 42 45 48 52 57 60 64 66 69 69 68 67 67 65 63 62 57 54 53 52 51 49 43 38 37 34 33 36 34 27
56 60 63 68 68 65 61 62 55 52 49 51 49 48 51 55 59 64 70 74 80 80 77 77 74 69 69 67 65 62 59 57 56 53 50 44 41 37 35 34 35 38 35 30
55 64 71 68 67 68 68 68 68 62 64 65 65 66 70 74 77 81 88 89 86 85 90 83 76 75 71 69 67 64 61 59 57 52 47 42 39 37 35 35 36 37 31 26
54 61 69 75 77 77 78 76 73 74 75 75 79 82 83 87 91 91 87 85 92 93 86 84 80 74 72 72 68 65 64 61 57 51 46 43 41 39 37 36 34 32 28 24
59 63 67 67 72 79 81 80 82 84 90 91 92 92 95 97 95 98 97 98 92 91 85 80 77 79 75 72 69 68 66 61 56 51 48 45 44 43 39 36 33 29 27 24
85 84 85 85 86 86 89 91 92 94 96 98 98 98 98 97 97 97 96 97 92 86 84 84 82 77 76 74 72 70 66 62 58 55 53 52 50 47 42 37 33 29 27 27
86 82 82 86 90 93 97 99 98 98 98 98 98 95 95 97 97 97 97 95 92 91 89 83 81 79 77 76 75 72 69 66 64 62 61 59 55 50 44 38 34 32 30 31
98 98 96 94 95 98 98 98 98 97 97 93 97 97 97 97 97 97 96 96 94 89 85 83 82 80 80 78 77 75 73 71 69 68 66 62 56 51 45 41 38 33 33 34
98 97 98 97 98 98 96 93 93 95 97 97 97 97 97 97 97 97 96 92 87 86 85 84 85 84 85 85 83 81 80 76 72 71 69 62 57 53 48 46 39 35 35 35
97 98 98 97 96 97 97 97 97 97 97 97 97 96 97 97 96 95 91 88 87 88 91 94 96 97 93 91 88 84 82 78 74 72 66 61 58 53 50 42 39 38 37 35
97 97 97 97 97 97 97 97 97 97 96 96 96 96 95 93 92 92 94 96 96 97 97 97 97 97 94 91 86 82 77 73 70 67 64 60 57 55 46 42 41 40 39 36
97 97 97 97 97 97 97 97 97 97 97 96 97 96 96 96 97 97 97 97 97 97 97 96 95 91 84 78 74 71 71 71 67 65 61 58 54 49 46 46 45 44 41 40
97 96 96 96 97 97 97 97 98 97 97 96 96 96 96 96 96 95 93 90 88 87 82 75 71 69 68 68 69 67 64 64 62 59 56 54 54 53 51 51 49 45 43 40
96 96 97 97 97 97 97 97 96 95 93 92 91 87 83 80 78 75 71 67 64 62 60 59 58 58 59 59 61 61 61 60 60 60 60 60 58 56 54 51 48 46 44 42

GFSNGP_prec_cthk_042.txt.gz
RH
49 48 46 53 50 40 53 61 56 50 47 34 38 46 50 57 50 46 41 37 34 33 43 40 37 33 36 40 42 52 58 69 64 58 70 74 71 68 64 65 67 67 67 65
55 54 48 49 47 50 42 36 35 41 44 45 44 45 47 51 45 38 32 33 31 27 38 38 41 43 42 43 48 50 54 55 58 68 70 72 68 63 64 63 57 54 55 55
62 54 55 50 46 45 47 48 43 45 43 41 37 44 48 46 40 36 33 27 29 27 38 38 43 44 46 45 46 52 56 60 65 67 62 59 55 51 48 47 46 49 52 58
73 69 63 39 43 38 42 41 39 39 39 42 41 40 44 47 46 40 32 31 34 43 44 41 41 45 49 54 56 60 65 65 60 57 52 47 43 42 41 44 46 50 56 60
74 62 50 40 42 42 39 36 34 41 39 44 42 42 42 42 42 34 33 33 39 45 47 43 40 45 50 54 54 55 58 55 51 46 41 38 36 38 43 47 51 55 58 60
82 72 69 49 39 36 43 44 39 48 43 42 44 55 50 43 34 27 26 33 38 40 43 43 42 41 45 48 50 49 46 47 42 37 35 37 41 44 47 52 55 58 57 55
85 82 65 46 40 39 51 46 47 52 50 40 50 50 40 31 28 25 29 34 35 35 38 41 39 38 38 39 41 45 43 38 35 36 39 42 44 48 49 51 53 52 50 49
85 82 77 53 53 50 51 40 51 41 48 54 46 42 35 30 29 25 28 32 35 37 37 38 39 39 40 43 43 39 36 36 39 42 44 47 48 47 48 52 53 51 52 53
88 74 65 67 57 56 53 49 50 51 62 55 43 39 37 35 32 25 29 34 38 41 41 42 43 44 44 42 39 36 36 39 42 44 46 47 48 49 55 58 55 54 53 52
74 66 67 82 72 59 61 62 54 59 62 49 49 45 43 41 35 27 31 35 39 42 45 46 45 45 42 41 38 39 41 43 45 47 48 49 52 55 58 56 53 53 54 54
74 62 62 66 67 67 67 69 65 61 62 57 52 45 46 44 34 30 33 37 41 43 46 48 48 47 46 45 44 45 47 49 52 52 51 53 57 55 55 55 55 56 54 53
62 52 58 61 64 64 66 60 60 64 65 59 56 54 49 43 34 34 38 40 43 46 46 47 50 51 50 49 50 53 55 58 58 57 58 62 60 57 58 59 60 58 55 52
58 58 61 58 52 52 58 63 61 67 64 60 61 61 54 45 38 38 41 44 46 48 48 47 48 50 52 55 57 60 65 67 69 70 70 65 63 65 67 67 65 60 56 52
54 53 55 52 55 56 60 67 70 72 71 71 68 65 63 59 52 49 48 51 51 52 52 52 53 55 60 64 66 72 74 72 73 72 68 68 69 69 70 69 67 65 63 61
50 51 55 56 56 60 54 60 62 70 74 74 72 72 73 70 66 61 61 61 64 68 69 69 69 72 76 79 81 79 81 81 76 76 77 73 73 71 68 68 67 65 66 65
52 55 57 57 69 65 53 59 67 72 75 77 76 80 77 76 79 78 78 79 81 80 77 79 83 83 83 82 84 85 84 84 86 83 80 78 73 73 74 72 70 69 70 71
69 63 57 65 68 69 73 69 66 71 73 74 77 81 77 81 83 85 85 87 86 88 91 93 91 89 93 97 97 97 95 88 85 81 81 79 79 78 76 74 73 73 73 73
70 70 66 61 58 67 71 68 64 62 67 77 83 82 91 91 93 94 97 97 96 97 97 97 97 97 97 97 97 95 91 88 87 86 86 85 82 80 79 78 77 78 82 83
67 66 66 61 63 70 70 71 78 83 79 79 81 83 83 95 96 93 92 95 96 97 97 97 97 97 96 96 94 92 91 89 89 88 88 88 86 85 85 85 87 86 85 82
71 74 71 69 77 82 83 96 94 98 98 97 94 95 90 92 95 96 96 97 97 97 97 97 97 97 97 97 97 97 95 89 88 89 90 91 91 93 92 90 88 84 80 75
89 92 91 89 86 86 88 91 95 93 93 95 97 97 97 97 96 97 97 97 97 97 97 97 97 97 97 96 95 96 97 97 97 97 97 96 96 94 87 81 79 72 67 66
96 96 95 93 92 95 97 97 96 97 96 95 97 97 96 96 97 97 97 97 97 97 97 97 97 97 97 97 97 97 95 94 92 90 89 86 81 77 74 68 64 62 61 60
96 97 97 97 96 96 96 96 96 96 96 97 97 96 96 96 97 97 97 97 97 97 97 97 97 96 95 92 89 86 84 81 76 70 66 63 58 55 55 55 55 53 52 52
97 96 96 97 97 96 96 96 96 96 96 97 97 97 96 97 97 97 97 97 97 96 94 91 86 81 75 71 67 61 56 53 49 45 44 44 45 46 46 45 45 46 47 47
96 96 96 96 96 96 97 97 96 96 96 96 97 96 96 96 94 92 89 85 79 73 66 61 55 51 49 45 40 37 35 35 35 35 37 38 39 41 42 44 45 46 46 48
92 90 87 85 82 80 79 78 76 75 74 70 67 62 58 54 50 47 45 43 40 38 37 37 34 30 30 30 30 31 32 34 37 38 39 40 41 43 46 48 49 49 50 51
63 59 56 53 52 50 47 44 42 40 37 38 36 34 32 32 32 32 32 33 32 32 31 30 30 30 32 32 33 34 35 37 40 42 43 44 46 48 50 51 52 54 55 55

GFSNGP_prec_cthk_045.txt.gz
RH
46 46 53 58 57 48 44 42 53 52 51 42 41 45 45 44 46 45 48 42 40 35 32 31 25 29 34 40 44 46 46 46 46 51 61 59 55 62 69 69 69 63 65 65
58 53 51 54 53 52 48 52 54 51 52 50 40 42 48 45 51 44 48 46 41 36 34 32 30 25 26 30 37 41 41 41 47 52 55 57 62 69 72 71 62 61 66 56
59 60 57 62 47 50 51 54 53 50 44 39 44 43 49 45 43 47 46 44 36 33 29 25 27 30 29 34 36 41 41 41 45 51 55 61 66 70 66 65 61 51 47 48
73 69 80 43 43 47 49 47 48 48 50 46 44 43 43 43 47 41 46 39 40 34 34 34 33 42 43 46 42 43 45 48 49 55 67 68 65 60 51 44 42 43 48 51
78 71 57 51 47 47 48 46 45 43 44 42 42 43 45 42 46 49 50 47 48 38 35 31 34 41 45 48 47 47 48 53 60 62 60 56 50 46 41 39 41 44 47 49
90 78 68 50 50 44 46 43 39 42 41 45 39 43 47 47 46 46 46 41 39 31 28 33 39 41 44 47 47 50 56 56 55 51 48 45 42 37 35 38 42 45 48 51
96 93 74 64 52 49 52 41 37 42 40 46 46 52 46 48 49 52 51 41 30 28 30 34 37 38 41 45 49 47 44 45 45 44 44 40 37 37 40 44 48 50 50 50
97 94 87 68 59 55 57 48 54 54 49 46 53 50 47 45 55 52 45 36 30 28 29 33 35 38 40 42 43 44 43 46 48 46 43 39 39 42 46 49 50 47 47 50
72 91 78 72 70 69 70 66 61 58 57 52 60 55 56 54 48 46 40 37 33 30 32 36 38 39 39 40 41 43 45 46 47 43 40 41 42 45 48 50 50 50 51 57
57 52 62 67 67 69 71 68 67 77 60 66 61 53 53 53 43 42 41 41 38 36 36 39 41 41 42 43 45 45 46 46 43 41 42 43 45 49 51 54 56 59 64 64
45 44 51 64 65 68 72 73 76 70 64 66 59 55 55 52 50 47 46 45 42 41 42 44 45 47 48 50 50 50 50 47 45 45 46 50 54 58 59 60 64 65 67 65
50 41 47 58 57 64 70 76 80 72 68 66 63 58 57 58 59 56 53 48 44 46 47 50 52 54 57 58 57 55 54 54 54 55 56 60 63 64 65 68 67 67 64 61
59 48 50 51 56 59 62 65 67 72 66 64 65 61 60 64 64 60 60 55 51 51 50 53 55 57 59 61 60 61 63 67 68 71 73 72 71 72 70 71 72 71 70 69
55 47 49 53 58 57 60 61 63 60 66 65 65 64 67 68 72 74 71 69 66 64 58 59 61 62 64 69 74 76 79 83 84 81 79 79 80 77 72 77 81 79 75 73
59 54 53 55 55 55 56 58 60 60 61 64 65 66 72 77 80 81 80 77 78 78 77 73 74 78 81 86 87 86 88 89 86 83 85 83 81 86 87 89 84 76 78 80
63 60 57 56 52 54 57 55 58 69 64 64 67 69 75 76 81 88 85 90 83 86 89 89 91 93 93 93 93 94 89 89 92 93 94 96 95 92 85 80 85 86 84 85
73 72 71 70 69 68 67 69 74 79 76 76 75 78 75 79 83 88 91 93 94 95 95 96 97 97 96 96 95 96 97 97 97 97 97 96 91 91 96 93 91 90 90 90
81 79 76 77 79 79 76 73 72 76 82 83 87 82 78 78 82 88 97 94 97 97 97 94 95 97 97 97 97 97 97 97 97 97 97 97 97 97 96 95 95 93 93 93
80 78 76 74 72 71 69 67 64 70 79 79 80 82 89 89 85 81 86 92 90 86 88 94 96 96 96 97 97 97 97 97 97 97 97 97 97 97 97 97 97 97 97 96
83 83 81 77 75 74 77 74 73 73 80 85 91 93 97 97 97 97 97 97 96 96 96 96 97 97 97 97 97 97 97 97 97 97 97 97 97 98 98 97 93 91 88 82
88 88 87 87 86 86 92 94 91 90 91 92 94 93 95 97 97 97 96 96 97 97 96 97 97 97 97 97 97 97 97 97 97 97 98 97 95 91 87 83 77 72 70 66
97 97 95 95 95 95 96 96 96 96 96 96 96 97 97 96 96 96 97 97 97 96 96 97 97 97 97 97 97 97 96 93 89 84 77 71 66 60 57 55 52 48 47 46
97 97 97 96 96 96 96 96 96 96 95 96 96 96 96 96 96 96 96 97 97 97 97 98 97 96 92 87 81 73 65 59 53 50 46 43 40 38 37 37 38 40 41 41
97 97 96 95 95 95 94 94 94 93 93 93 93 93 94 95 95 95 95 94 92 86 78 70 61 53 46 43 40 37 33 31 30 29 29 30 31 34 37 40 41 42 43 44
94 90 86 83 81 79 78 76 75 74 72 70 67 63 59 55 51 50 48 45 42 37 34 31 28 26 25 25 25 25 25 27 29 30 32 33 36 38 40 42 43 45 47 48
78 75 69 61 56 53 50 47 43 40 37 34 33 31 30 28 28 28 27 27 27 28 27 27 26 25 25 25 25 27 28 31 32 34 36 38 41 42 44 46 47 49 51 53
53 45 41 38 36 32 29 27 25 26 26 26 25 26 26 26 27 27 28 26 26 26 26 25 25 26 28 29 30 32 34 35 36 38 40 42 44 45 47 50 52 54 56 58